Weather History for Denver, CO

Change the Weather History Date:

Thursday, January 24, 2013

  Actual Average Record
Temperature  
Mean Temperature 47 °F 31 °F  
Max Temperature 66 °F 44 °F 68 °F (1970)
Min Temperature 28 °F 17 °F -18 °F (1872)
Degree Days  
Heating Degree Days 18 34  
Month to date heating degree days 853 821  
Since 1 July heating degree days 3086 3289  
Cooling Degree Days 0 0  
Month to date cooling degree days 0 0  
Year to date cooling degree days 0 0  
Moisture  
Dew Point 13 °F    
Average Humidity 31    
Maximum Humidity 53    
Minimum Humidity 9    
Precipitation  
Precipitation 0.00 in 0.02 in 0.43 in (1921)
Month to date precipitation 0.08 0.32  
Year to date precipitation 0.08 0.32  
Snow  
Snow 0.00 in - - ()
Month to date snowfall 1.4  
Since 1 July snowfall 13.8  
Snow Depth 0.00 in    
Sea Level Pressure  
Sea Level Pressure 29.97 in    
Wind  
Wind Speed 11 mph (West)    
Max Wind Speed 38 mph    
Max Gust Speed 45 mph    
Visibility 10 miles    
Events      
T = Trace of Precipitation, MM = Missing Value Source: NWS Daily Summary

Daily Weather History Graph

Daily Weather History Graph

Search for Another Location

Airport:

Trip Planner

Search our weather history database for the weather conditions in past years. The results will help you decide how hot, cold, wet, or windy it might be!

Date:

Astronomy

Jan. 24, 2013 Rise Set
Actual Time 7:13 AM MST 5:08 PM MST
Civil Twilight 6:44 AM MST 5:38 PM MST
Nautical Twilight 6:11 AM MST 6:10 PM MST
Astronomical Twilight 5:39 AM MST 6:42 PM MST
Moon 3:13 PM MST (1/24) 5:12 AM MST (1/24)
Length of Visible Light 10h 54m
Length of Day
9h 55m
Waxing Gibbous, 95% of the Moon is Illuminated
Jan 24
Waxing Gibbous
Jan 26
Full
Feb 3
Last Quarter
Feb 10
New
Feb 17
First Quarter

Hourly Weather History & Observations

Time (MST) Temp. Windchill Dew Point Humidity Pressure Visibility Wind Dir Wind Speed Gust Speed Precip Events Conditions
12:53 AM 36.0 °F 28.5 °F 12.0 °F 37% 30.04 in 10.0 mi WNW 10.4 mph - N/A   Mostly Cloudy
1:53 AM 30.9 °F 23.5 °F 14.0 °F 50% 30.05 in 10.0 mi West 8.1 mph - N/A   Mostly Cloudy
2:53 AM 30.9 °F 21.7 °F 15.1 °F 52% 30.04 in 10.0 mi WSW 11.5 mph - N/A   Mostly Cloudy
3:53 AM 30.9 °F 25.2 °F 12.0 °F 46% 30.03 in 10.0 mi SSW 5.8 mph - N/A   Mostly Cloudy
4:53 AM 33.1 °F 28.7 °F 10.9 °F 40% 30.05 in 10.0 mi NE 4.6 mph - N/A   Scattered Clouds
5:53 AM 41.0 °F 37.1 °F 6.1 °F 24% 30.02 in 10.0 mi SSW 5.8 mph - N/A   Mostly Cloudy
6:53 AM 39.9 °F 34.5 °F 3.9 °F 22% 30.02 in 10.0 mi SW 8.1 mph - N/A   Scattered Clouds
7:53 AM 42.1 °F 37.7 °F 3.9 °F 21% 30.00 in 10.0 mi SW 6.9 mph - N/A   Mostly Cloudy
8:53 AM 44.1 °F 41.5 °F 10.9 °F 26% 30.01 in 10.0 mi SSW 4.6 mph - N/A   Mostly Cloudy
9:53 AM 50.0 °F - 1.9 °F 14% 29.98 in 10.0 mi SSW 11.5 mph - N/A   Mostly Cloudy
10:53 AM 57.9 °F - -0.0 °F 10% 29.92 in 10.0 mi West 4.6 mph - N/A   Mostly Cloudy
11:53 AM 61.0 °F - 1.9 °F 9% 29.89 in 10.0 mi Variable 4.6 mph - N/A   Mostly Cloudy
12:15 PM 64.4 °F - 3.2 °F 9% 29.98 in 10.0 mi WNW 18.4 mph 23.0 mph N/A   Mostly Cloudy
12:53 PM 64.0 °F - 3.0 °F 9% 29.86 in 10.0 mi NNW 13.8 mph 19.6 mph N/A   Mostly Cloudy
1:53 PM 63.0 °F - 7.0 °F 11% 29.87 in 10.0 mi NNW 11.5 mph - N/A   Mostly Cloudy
2:42 PM 62.6 °F - 14.0 °F 15% 29.94 in 10.0 mi WNW 25.3 mph 38.0 mph N/A   Mostly Cloudy
2:53 PM 63.0 °F - 14.0 °F 15% 29.86 in 10.0 mi WNW 29.9 mph 36.8 mph N/A   Mostly Cloudy
3:53 PM 60.1 °F - 19.0 °F 20% 29.90 in 10.0 mi West 26.5 mph 35.7 mph N/A   Mostly Cloudy
4:53 PM 57.9 °F - 19.9 °F 23% 29.92 in 10.0 mi WNW 25.3 mph 32.2 mph N/A   Mostly Cloudy
5:53 PM 55.0 °F - 21.0 °F 27% 29.95 in 10.0 mi WNW 20.7 mph 32.2 mph N/A   Mostly Cloudy
6:53 PM 53.1 °F - 21.9 °F 30% 29.99 in 10.0 mi WNW 18.4 mph - N/A   Mostly Cloudy
7:53 PM 53.1 °F - 23.0 °F 31% 29.99 in 10.0 mi West 8.1 mph - N/A   Mostly Cloudy
8:53 PM 48.0 °F - 21.0 °F 34% 30.02 in 10.0 mi ENE 3.5 mph - N/A   Mostly Cloudy
9:53 PM 50.0 °F - 23.0 °F 35% 29.99 in 10.0 mi Calm Calm - N/A   Mostly Cloudy
10:53 PM 42.1 °F 35.2 °F 21.0 °F 43% 30.01 in 10.0 mi South 12.7 mph - N/A   Scattered Clouds
11:53 PM 44.1 °F 40.1 °F 21.9 °F 42% 29.97 in 10.0 mi West 6.9 mph - N/A   Partly Cloudy